Stations météo

réclame
Mon MeteoGroup
Mühldorf, Allemagne (10875): Température de l'air & dewpoint: 15.10.2017 15:00:00 - 21.10.2017 15:00:00 (CEST)Mühldorf, Allemagne (10875): Température de l'air 5cm & Température de l'air -5cm: 15.10.2017 15:00:00 - 21.10.2017 15:00:00 (CEST)Mühldorf, Allemagne (10875): Température de l'air -20cm & Température de l'air -100cm: 15.10.2017 15:00:00 - 21.10.2017 15:00:00 (CEST)Mühldorf, Allemagne (10875): Vitesse du vent & gusts: 15.10.2017 15:00:00 - 21.10.2017 15:00:00 (CEST)Mühldorf, Allemagne (10875): Direction du vent: 15.10.2017 15:00:00 - 21.10.2017 15:00:00 (CEST)Mühldorf, Allemagne (10875): reduced air pressure: 15.10.2017 15:00:00 - 21.10.2017 15:00:00 (CEST)Mühldorf, Allemagne (10875): visibility: 15.10.2017 15:00:00 - 21.10.2017 15:00:00 (CEST)Mühldorf, Allemagne (10875): Ensoleillement: 15.10.2017 15:00:00 - 21.10.2017 15:00:00 (CEST)Mühldorf, Allemagne (10875): Quantités de précipitations: 15.10.2017 15:00:00 - 21.10.2017 15:00:00 (CEST)
Date & Time tt [°C] td [°C] tt 5cm [°C] tt -5cm [°C] tt -20cm [°C] tt -100cm [°C] ff [km/h] ff [knt] fx [km/h] fx [knt] dd ppp [hPa] vv [km] sd [min] rr [mm]
21.10.2017 15:00:00 17,8 12,5 19,2 16,1 12,7 13,5 5 3 16 9 WSW 1016,4 19 30 0,0
21.10.2017 14:00:00 17,1 12,6 19,1 15,0 12,6 13,5 5 3 11 6 SW 1016,9 20 13 0,0
21.10.2017 13:00:00 15,0 12,1 17,4 13,7 12,6 13,5 5 3 9 5 SSW 1018,0 19 12 0,0
21.10.2017 12:00:00 13,2 11,1 13,9 12,6 12,6 13,5 5 3 10 5 SSW 1019,1 16 0 0,0
21.10.2017 11:00:00 12,5 11,3 13,0 12,0 12,6 13,5 4 2 6 3 SE 1019,2 13 0 0,0
21.10.2017 10:00:00 11,6 11,1 12,0 11,5 12,6 13,5 4 2 7 4 ESE 1019,2 6 0 0,1
21.10.2017 09:00:00 10,9 10,5 11,0 11,3 12,7 13,5 4 2 7 4 SE 1019,2 4,0 0 0,3
21.10.2017 08:00:00 10,7 10,3 10,8 11,2 12,7 13,5 2 1 11 6 W 1018,9 1,5 0 1,1
21.10.2017 07:00:00 10,6 10,2 10,5 11,1 12,8 13,5 6 3 8 4 E 1018,0 2,7 0 0,0
21.10.2017 06:00:00 10,6 10,2 10,4 11,1 12,8 13,5 0 0 5 3 N 1018,3 2,2 0 0,7
21.10.2017 05:00:00 10,6 10,0 10,4 11,0 12,9 13,5 3 2 5 3 ESE 1018,3 4,0 0 1,3
21.10.2017 04:00:00 10,4 9,5 10,4 10,7 13,0 13,5 6 3 8 4 ENE 1018,7 11 0 0,0
21.10.2017 03:00:00 9,9 9,7 9,5 10,5 13,1 13,5 4 2 7 4 ESE 1018,7 11 0 0,0
21.10.2017 02:00:00 8,3 7,8 6,9 10,6 13,2 13,5 0 0 4 2 N 1019,4 6 0 0,0
21.10.2017 01:00:00 8,5 7,7 6,9 10,9 13,3 13,5 2 1 5 3 ENE 1019,2 10 0 0,0
21.10.2017 00:00:00 8,8 8,3 6,6 11,4 13,4 13,5 2 1 4 2 W 1019,1 4,3 0 0,0
20.10.2017 23:00:00 9,9 9,4 8,5 11,9 13,4 13,5 2 1 6 4 S 1018,8 8 0 0,0
20.10.2017 22:00:00 9,9 8,8 8,3 12,4 13,5 13,5 4 2 9 5 WSW 1018,4 9 0 0,0
20.10.2017 21:00:00 9,7 8,5 8,4 13,1 13,4 13,5 4 2 8 4 WNW 1018,4 8 0 0,0
20.10.2017 20:00:00 11,2 9,4 8,9 14,0 13,3 13,5 4 2 8 4 E 1017,5 12 0 0,0
20.10.2017 19:00:00 12,3 9,4 9,2 15,1 13,1 13,5 0 0 7 4 N 1017,1 14 0 0,0
20.10.2017 18:00:00 16,5 11,3 13,7 16,5 12,9 13,5 4 2 7 4 E 1015,9 16 46 0,0
20.10.2017 17:00:00 19,4 10,6 20,1 17,1 12,7 13,5 5 3 6 3 SE 1015,5 19 60 0,0
20.10.2017 16:00:00 19,4 10,2 21,5 17,1 12,5 13,5 4 2 6 3 ESE 1015,4 19 60 0,0
20.10.2017 15:00:00 19,0 10,5 21,7 16,3 12,3 13,5 4 2 6 3 SW 1015,5 16 54 0,0
20.10.2017 14:00:00 17,0 11,1 20,2 15,0 12,2 13,5 4 2 9 5 ENE 1015,9 13 59 0,0
20.10.2017 13:00:00 14,2 10,0 18,4 13,6 12,1 13,5 5 3 10 5 E 1016,6 8 60 0,0
20.10.2017 12:00:00 11,2 9,2 15,2 12,1 12,1 13,5 6 3 12 7 E 1017,4 6 52 0,0
20.10.2017 11:00:00 8,8 8,2 11,3 10,8 12,1 13,5 5 3 9 5 SE 1017,7 1,6 8 0,0
20.10.2017 10:00:00 7,9 7,9 9,9 10,1 12,2 13,5 5 3 9 5 ESE 1017,5 0,2 0 0,0
20.10.2017 09:00:00 7,3 7,3 8,2 9,7 12,2 13,5 5 3 7 4 SE 1017,4 0,3 0 0,0
20.10.2017 08:00:00 7,0 7,0 7,5 9,6 12,3 13,5 3 1 9 5 SSE 1017,0 0,1 0 0,0
20.10.2017 07:00:00 7,3 7,3 7,8 9,6 12,4 13,5 5 3 9 5 W 1016,7 0,1 0 0,0
20.10.2017 06:00:00 7,3 7,3 7,8 9,6 12,5 13,5 3 2 6 3 ENE 1016,3 0,1 0 0,0
20.10.2017 05:00:00 7,1 7,0 7,6 9,6 12,6 13,5 5 3 8 4 E 1015,7 0,1 0 0,0
20.10.2017 04:00:00 6,8 6,8 7,3 9,6 12,7 13,5 3 2 11 6 NE 1015,8 0,1 0 0,0
20.10.2017 03:00:00 7,0 7,0 7,4 9,7 12,8 13,5 5 3 6 3 ENE 1015,8 0,1 0 0,0
20.10.2017 02:00:00 6,8 6,7 6,7 9,8 12,9 13,5 5 3 7 4 E 1016,0 0,1 0 0,0
20.10.2017 01:00:00 7,9 7,9 8,0 9,8 13,0 13,5 5 3 11 6 E 1016,0 0,1 0 0,0
20.10.2017 00:00:00 8,5 8,5 8,2 9,6 13,2 13,5 6 4 12 6 ESE 1016,1 0,1 0 0,0
19.10.2017 23:00:00 5,9 5,2 4,2 10,2 13,3 13,5 3 2 5 3 ENE 1016,8 0,1 0 0,0
19.10.2017 22:00:00 6,5 5,4 4,0 10,9 13,3 13,6 3 2 5 3 W 1016,7 3,9 0 0,0
19.10.2017 21:00:00 8,6 8,6 4,5 11,8 13,3 13,6 2 1 6 4 S 1016,1 2,4 0 0,0
19.10.2017 20:00:00 9,6 8,2 5,7 13,0 13,2 13,6 5 3 7 4 E 1015,9 6 0 0,0
19.10.2017 19:00:00 11,7 9,5 7,3 14,4 13,1 13,5 3 2 9 5 E 1015,4 9 0 0,0
19.10.2017 18:00:00 15,4 11,0 14,0 15,6 12,9 13,5 6 3 11 6 ENE 1014,3 16 50 0,0
19.10.2017 17:00:00 17,9 9,7 18,4 16,0 12,7 13,5 5 3 10 5 ESE 1014,0 32 60 0,0
19.10.2017 16:00:00 18,1 10,1 20,4 15,9 12,5 13,5 7 4 17 9 E 1014,4 25 60 0,0
19.10.2017 15:00:00 17,5 9,4 20,1 15,6 12,3 13,5 11 6 17 9 E 1014,9 22 60 0,0
19.10.2017 14:00:00 16,3 10,4 20,2 14,6 12,2 13,5 5 3 12 6 E 1015,9 30 60 0,0
19.10.2017 13:00:00 13,8 9,5 17,8 13,3 12,2 13,6 7 4 15 8 E 1017,0 22 60 0,0
19.10.2017 12:00:00 11,2 9,6 14,1 11,8 12,2 13,6 8 4 13 7 E 1017,6 13 47 0,0
19.10.2017 11:00:00 8,2 8,2 10,2 10,6 12,3 13,6 6 3 8 4 E 1018,1 0,7 1 0,0
19.10.2017 10:00:00 6,7 6,7 8,5 9,9 12,3 13,6 5 3 6 3 E 1018,3 0,1 0 0,0
19.10.2017 09:00:00 6,0 6,0 7,0 9,6 12,4 13,6 5 3 9 5 ESE 1018,3 0,1 0 0,0
19.10.2017 08:00:00 6,3 6,3 6,7 9,7 12,5 13,6 4 2 6 4 E 1017,8 0,1 0 0,0
19.10.2017 07:00:00 6,4 6,4 6,9 10,1 12,5 13,6 3 1 8 5 E 1017,6 0,1 0 0,0
19.10.2017 06:00:00 7,0 7,0 7,6 10,3 12,6 13,6 4 2 6 4 S 1017,7 0,1 0 0,0
19.10.2017 05:00:00 7,9 7,9 8,4 10,4 12,7 13,6 4 2 6 4 ESE 1017,4 0,1 0 0,0
19.10.2017 04:00:00 7,7 7,7 8,3 10,5 12,8 13,6 3 2 6 3 SSE 1017,5 0,1 0 0,0
19.10.2017 03:00:00 8,4 8,4 8,8 10,6 12,8 13,6 2 1 8 4 NNE 1017,6 0,1 0 0,0
19.10.2017 02:00:00 8,6 8,6 9,0 10,7 13,0 13,6 4 2 6 3 E 1017,1 0,1 0 0,0
19.10.2017 01:00:00 8,9 8,9 9,2 10,5 13,1 13,6 3 1 7 4 E 1017,0 0,1 0 0,0
19.10.2017 00:00:00 7,3 7,3 7,8 10,4 13,2 13,6 2 1 5 3 ENE 1017,2 0,1 0 0,0
18.10.2017 23:00:00 6,3 6,0 4,8 10,8 13,2 13,6 2 1 5 3 W 1017,4 0,1 0 0,0
18.10.2017 22:00:00 7,1 7,0 5,3 11,5 13,3 13,6 2 1 3 2 W 1017,1 0,1 0 0,0
18.10.2017 21:00:00 8,5 8,3 5,4 12,4 13,2 13,6 0 0 3 2 N 1016,5 0,6 0 0,0
18.10.2017 20:00:00 10,6 10,4 6,7 13,7 13,1 13,6 0 0 3 2 N 1016,2 3,4 0 0,0
18.10.2017 19:00:00 12,8 11,2 8,2 15,3 12,9 13,6 4 2 5 3 E 1015,4 6 0 0,0
18.10.2017 18:00:00 17,4 11,7 15,1 16,6 12,6 13,6 4 2 7 4 E 1014,3 10 51 0,0
18.10.2017 17:00:00 19,7 10,8 21,3 17,2 12,4 13,6 5 3 8 4 NE 1013,9 12 60 0,0
18.10.2017 16:00:00 20,3 11,2 23,5 17,3 12,1 13,6 4 2 9 5 NNE 1014,0 11 60 0,0
18.10.2017 15:00:00 20,0 10,8 22,7 16,6 11,9 13,6 3 2 10 5 WNW 1014,5 12 60 0,0
18.10.2017 14:00:00 18,7 10,0 22,4 15,4 11,7 13,6 3 2 7 4 W 1015,4 13 60 0,0
18.10.2017 13:00:00 16,4 9,8 20,0 13,6 11,7 13,6 4 2 8 4 S 1016,4 15 60 0,0
18.10.2017 12:00:00 14,2 8,7 17,0 11,4 11,7 13,6 3 2 5 3 SSE 1017,2 17 59 0,0
18.10.2017 11:00:00 11,0 8,1 12,6 9,2 11,8 13,6 0 0 5 3 N 1018,2 14 37 0,0
18.10.2017 10:00:00 7,3 6,4 8,1 7,9 12,0 13,6 3 1 7 4 SE 1019,1 4,6 35 0,0
18.10.2017 09:00:00 4,6 4,4 5,3 7,1 12,1 13,6 0 0 4 2 N 1019,8 0,3 0 0,0
18.10.2017 08:00:00 3,3 3,2 1,7 7,1 12,3 13,6 0 0 3 2 N 1019,8 0,4 0 0,0
18.10.2017 07:00:00 3,7 3,6 2,0 7,5 12,4 13,6 0 0 3 2 N 1019,6 0,3 0 0,0
18.10.2017 06:00:00 4,5 4,5 2,2 7,9 12,6 13,6 0 0 3 2 N 1019,7 0,2 0 0,0
18.10.2017 05:00:00 4,8 4,5 3,2 8,2 12,7 13,6 1 0 6 3 NE 1019,6 0,2 0 0,0
18.10.2017 04:00:00 5,1 5,0 3,2 8,6 12,9 13,6 3 2 5 3 NW 1019,9 0,4 0 0,0
18.10.2017 03:00:00 5,8 5,8 3,6 8,9 13,0 13,6 3 2 4 2 W 1020,0 4,1 0 0,0
18.10.2017 02:00:00 6,0 6,0 4,0 9,3 13,2 13,6 2 1 5 3 WNW 1020,3 0,2 0 0,0
18.10.2017 01:00:00 5,9 5,6 4,2 9,7 13,3 13,6 2 1 4 2 WSW 1020,3 0,3 0 0,0
18.10.2017 00:00:00 6,7 6,7 3,9 10,2 13,4 13,6 4 2 5 3 W 1020,6 0,2 0 0,0
17.10.2017 23:00:00 6,9 6,3 4,7 10,9 13,5 13,6 2 1 4 2 W 1020,9 12 0 0,0
17.10.2017 22:00:00 7,3 6,6 5,1 11,7 13,6 13,6 2 1 3 2 WNW 1020,9 9 0 0,0
17.10.2017 21:00:00 8,9 8,0 5,2 12,7 13,6 13,6 1 0 6 3 W 1020,9 17 0 0,0
17.10.2017 20:00:00 9,6 8,3 6,8 13,9 13,4 13,6 5 3 6 3 W 1021,1 18 0 0,0
17.10.2017 19:00:00 12,2 9,8 8,7 15,5 13,3 13,6 0 0 3 2 N 1020,8 23 0 0,0
17.10.2017 18:00:00 16,1 10,8 14,0 16,9 13,0 13,6 3 1 4 2 N 1020,3 28 12 0,0
17.10.2017 17:00:00 19,9 9,9 19,8 17,5 12,8 13,6 4 2 7 4 E 1020,1 35 60 0,0
17.10.2017 16:00:00 20,6 9,1 22,7 17,7 12,5 13,6 2 1 6 4 ENE 1020,6 34 60 0,0
17.10.2017 15:00:00 20,0 8,0 24,2 17,2 12,3 13,6 4 2 6 3 WNW 1021,7 26 60 0,0
17.10.2017 14:00:00 18,9 9,1 22,5 16,0 12,1 13,6 4 2 7 4 SE 1022,9 19 60 0,0
17.10.2017 13:00:00 16,7 9,4 21,1 14,6 12,0 13,6 4 2 7 4 ENE 1024,2 14 60 0,0
17.10.2017 12:00:00 14,2 9,3 16,5 12,5 12,0 13,6 4 2 9 5 S 1025,5 14 60 0,0
17.10.2017 11:00:00 9,9 8,7 13,0 10,5 12,1 13,6 4 2 7 4 ENE 1026,6 6 14 0,0
17.10.2017 10:00:00 7,4 7,1 9,6 9,5 12,2 13,6 3 2 5 3 ENE 1027,6 0,2 0 0,0
17.10.2017 09:00:00 6,0 5,9 6,8 8,9 12,3 13,6 1 0 3 2 W 1027,7 0,2 0 0,0
17.10.2017 08:00:00 5,8 5,8 5,6 9,0 12,4 13,6 3 1 5 3 E 1027,5 0,2 0 0,0
17.10.2017 07:00:00 5,7 5,7 5,7 9,2 12,5 13,6 0 0 3 2 N 1027,3 0,2 0 0,0
17.10.2017 06:00:00 6,4 6,4 6,7 9,4 12,6 13,6 4 2 5 3 WNW 1027,2 0,1 0 0,0
17.10.2017 05:00:00 7,1 7,1 7,2 9,4 12,7 13,6 0 0 5 3 N 1027,0 0,1 0 0,0
17.10.2017 04:00:00 7,2 7,2 7,0 9,4 12,9 13,6 0 0 5 3 N 1027,1 0,1 0 0,0
17.10.2017 03:00:00 7,0 7,0 7,2 9,2 13,0 13,7 0 0 3 1 N 1027,5 0,1 0 0,0
17.10.2017 02:00:00 5,4 5,4 5,2 9,2 13,2 13,7 3 2 6 3 WSW 1028,1 0,3 0 0,0
17.10.2017 01:00:00 5,8 5,8 3,3 9,7 13,3 13,7 0 0 2 1 N 1028,2 2,3 0 0,0
17.10.2017 00:00:00 6,6 6,6 4,5 10,4 13,5 13,7 0 0 3 2 N 1028,2 0,3 0 0,0
16.10.2017 23:00:00 6,9 6,5 4,1 11,1 13,5 13,7 0 0 2 1 N 1028,1 15 0 0,0
16.10.2017 22:00:00 8,3 8,3 4,8 12,1 13,6 13,7 0 0 5 3 N 1027,9 10 0 0,0
16.10.2017 21:00:00 9,7 9,4 5,8 13,2 13,5 13,7 2 1 3 2 WNW 1027,6 13 0 0,0
16.10.2017 20:00:00 11,0 9,4 6,5 14,5 13,4 13,7 0 0 5 3 N 1027,4 19 0 0,0
16.10.2017 19:00:00 13,4 10,0 9,1 16,3 13,2 13,7 0 0 4 2 N 1026,7 25 0 0,0
16.10.2017 18:00:00 18,9 10,4 17,6 17,7 12,9 13,7 0 0 5 3 N 1025,5 27 58 0,0
16.10.2017 17:00:00 22,0 9,2 23,2 18,2 12,6 13,7 3 2 5 3 ENE 1025,1 35 60 0,0
16.10.2017 16:00:00 22,1 9,3 24,1 18,3 12,3 13,7 4 2 9 5 SSE 1025,3 26 60 0,0
16.10.2017 15:00:00 22,5 8,5 24,4 17,7 12,0 13,7 3 2 6 3 SSW 1025,6 34 60 0,0
16.10.2017 14:00:00 21,2 8,3 25,9 16,6 11,8 13,7 2 1 5 3 N 1026,2 40 60 0,0
16.10.2017 13:00:00 19,1 9,1 23,2 15,0 11,7 13,7 3 2 7 4 W 1027,1 35 60 0,0
16.10.2017 12:00:00 16,5 9,1 19,5 13,0 11,7 13,7 3 2 7 4 E 1028,0 38 60 0,0
16.10.2017 11:00:00 13,7 8,7 15,1 10,9 11,7 13,7 3 2 7 4 SE 1028,7 20 60 0,0
16.10.2017 10:00:00 9,2 7,0 13,1 8,9 11,8 13,7 3 1 5 3 ENE 1029,3 7 60 0,0
16.10.2017 09:00:00 6,5 5,8 6,8 7,9 12,0 13,7 0 0 3 2 N 1029,7 0,3 6 0,0
16.10.2017 08:00:00 4,2 4,1 3,9 7,8 12,1 13,7 1 0 3 2 E 1029,7 0,2 0 0,0
16.10.2017 07:00:00 4,4 4,2 2,7 8,1 12,2 13,7 1 0 7 4 NNW 1029,7 0,3 0 0,0
16.10.2017 06:00:00 5,9 5,9 4,4 8,4 12,4 13,7 4 2 5 3 E 1029,4 0,3 0 0,0
16.10.2017 05:00:00 5,5 5,5 4,2 8,6 12,5 13,7 2 1 3 2 E 1029,5 0,2 0 0,0
16.10.2017 04:00:00 5,8 5,8 5,4 8,8 12,7 13,7 3 1 3 2 NE 1029,3 0,1 0 0,0
16.10.2017 03:00:00 5,7 5,7 5,4 9,0 12,8 13,7 2 1 4 2 SSW 1029,2 0,1 0 0,0
16.10.2017 02:00:00 5,8 5,8 4,9 9,2 12,9 13,7 2 1 5 3 W 1029,0 0,2 0 0,0
16.10.2017 01:00:00 6,2 6,1 4,2 9,6 13,1 13,7 3 1 4 2 SSW 1028,7 0,3 0 0,0
16.10.2017 00:00:00 6,3 6,2 4,7 10,2 13,2 13,7 2 1 3 2 W 1028,8 0,3 0 0,0
15.10.2017 23:00:00 7,3 7,0 4,9 10,9 13,3 13,7 3 2 4 2 W 1028,5 13 0 0,0
15.10.2017 22:00:00 8,0 7,2 4,5 11,8 13,3 13,7 0 0 4 2 N 1028,0 18 0 0,0
15.10.2017 21:00:00 9,8 9,6 5,4 12,8 13,2 13,7 4 2 4 2 W 1027,9 20 0 0,0
15.10.2017 20:00:00 10,5 9,3 7,1 14,2 13,1 13,7 2 1 4 2 NNW 1027,7 18 0 0,0
15.10.2017 19:00:00 13,3 10,7 9,2 15,8 12,9 13,7 2 1 4 2 NW 1027,0 29 0 0,0
15.10.2017 18:00:00 19,0 10,7 18,1 17,0 12,6 13,7 3 1 6 3 E 1025,8 35 60 0,0
15.10.2017 17:00:00 20,5 8,9 21,6 17,4 12,4 13,7 4 2 8 4 ESE 1025,7 39 60 0,0
15.10.2017 16:00:00 20,3 8,9 22,7 17,3 12,1 13,7 4 2 9 5 SE 1026,0 35 60 0,0
15.10.2017 15:00:00 19,5 8,9 21,7 16,7 11,8 13,7 3 2 14 8 SSE 1026,6 28 60 0,0

tt = Température de l'air
td = dewpoint
tt 5cm = Température de l'air 5cm
tt -5cm = Température de l'air -5cm
tt -20cm = Température de l'air -20cm
tt -100cm = Température de l'air -100cm
ff = Vitesse du vent
fx = gusts
dd = Direction du vent
ppp = reduced air pressure
vv = visibility
sd = Ensoleillement
rr = Quantités de précipitations

stations d'obs. à proximité